Location: Burla
(50.9568°N, 10.4983°E)
Time: 19:57:14
(UTC+00:00)

Cosmos 2341 Rocket - Pass Details

Date: 18 January 2026
Orbit: 967 x 1004 km, 82.9° (Epoch: 14 February)

Event Time Altitude Azimuth Distance (km) Brightness Sun altitude
Rises 06:21:02 0° 204° (SSW) 3,718 7.0 -7.9°
Reaches altitude 10° 06:23:38 10° 209° (SSW) 2,773 6.3 -7.6°
Maximum altitude 06:29:52 54° 286° (WNW) 1,209 4.2 -6.7°
Drops below altitude 10° 06:36:07 10° 3° (N) 2,783 6.2 -5.8°
Sets 06:38:44 0° 8° (N) 3,732 6.9 -5.4°
